,,,PA_Meas_PMT16A,,PR_Meas_QMR101_102,,RH_Meas_QMH101,,SR_Meas_QMS101,,TA_Meas_QMH101,,GenWind,,GenWind,
date,time,status,PA,status,PR,status,RH,status,SR,status,TA,status,DirAvg,status,SpdAvg,
2010-11-19, 00:00:04,VALID,1003.52,VALID,0,INVALID,163.685,VALID,0,VALID,23.8964,VALID,7,VALID,0,
2010-11-19, 00:01:04,VALID,1003.54,VALID,0,INVALID,163.723,VALID,0,VALID,23.8769,VALID,7,VALID,0,
2010-11-19, 00:02:04,VALID,1003.53,VALID,0,INVALID,163.723,VALID,0,VALID,23.8769,VALID,7,VALID,0,
2010-11-19, 00:03:04,VALID,1003.53,VALID,0,INVALID,163.716,VALID,0.100563,VALID,23.8575,VALID,7,VALID,0,
2010-11-19, 00:04:04,VALID,1003.51,VALID,0,INVALID,163.708,VALID,0.100563,VALID,23.8185,VALID,7,VALID,0,
2010-11-19, 00:05:04,VALID,1003.5,VALID,0,INVALID,163.716,VALID,0,VALID,23.7796,VALID,7,VALID,0,
2010-11-19, 00:06:04,VALID,1003.5,VALID,0,INVALID,163.723,VALID,0,VALID,23.7601,VALID,7,VALID,0,
2010-11-19, 00:07:04,VALID,1003.54,VALID,0,INVALID,163.716,VALID,0.100563,VALID,23.7407,VALID,7,VALID,0,
2010-11-19, 00:08:04,VALID,1003.5,VALID,0,INVALID,163.716,VALID,0.100563,VALID,23.7425,VALID,7,VALID,0,
2010-11-19, 00:09:04,VALID,1003.53,VALID,0,INVALID,163.693,VALID,0.100563,VALID,23.7407,VALID,7,VALID,0,
2010-11-19, 00:10:04,VALID,1003.55,VALID,0,INVALID,163.716,VALID,0,VALID,23.7425,VALID,7,VALID,0,
2010-11-19, 00:11:04,VALID,1003.56,VALID,0,INVALID,163.685,VALID,0,VALID,23.7619,VALID,7,VALID,0,
2010-11-19, 00:12:04,VALID,1003.56,VALID,0,INVALID,163.708,VALID,0,VALID,23.7814,VALID,7,VALID,0,
2010-11-19, 00:13:04,VALID,1003.57,VALID,0,INVALID,163.701,VALID,0,VALID,23.7619,VALID,7,VALID,0,
2010-11-19, 00:14:04,VALID,1003.56,VALID,0,INVALID,163.701,VALID,0,VALID,23.7407,VALID,7,VALID,0,
2010-11-19, 00:15:04,VALID,1003.57,VALID,0,INVALID,163.708,VALID,0,VALID,23.7637,VALID,7,VALID,0,
2010-11-19, 00:16:04,VALID,1003.58,VALID,0,INVALID,163.693,VALID,0,VALID,23.723,VALID,7,VALID,0,
2010-11-19, 00:17:04,VALID,1003.61,VALID,0,INVALID,163.731,VALID,0,VALID,23.7017,VALID,7,VALID,0,
2010-11-19, 00:18:04,VALID,1003.61,VALID,0,INVALID,163.716,VALID,0,VALID,23.7035,VALID,7,VALID,0,
2010-11-19, 00:19:04,VALID,1003.61,VALID,0,INVALID,163.701,VALID,0,VALID,23.723,VALID,7,VALID,0,
2010-11-19, 00:20:04,VALID,1003.62,VALID,0,INVALID,163.731,VALID,0,VALID,23.7035,VALID,7,VALID,0,
2010-11-19, 00:21:04,VALID,1003.62,VALID,0,INVALID,163.716,VALID,0,VALID,23.6841,VALID,7,VALID,0,
2010-11-19, 00:22:04,VALID,1003.62,VALID,0,INVALID,163.708,VALID,0,VALID,23.6628,VALID,7,VALID,0,
2010-11-19, 00:23:04,VALID,1003.6,VALID,0,INVALID,163.716,VALID,0,VALID,23.6628,VALID,7,VALID,0,
2010-11-19, 00:24:04,VALID,1003.61,VALID,0,INVALID,163.723,VALID,0,VALID,23.6859,VALID,7,VALID,0,
2010-11-19, 00:25:04,VALID,1003.57,VALID,0,INVALID,163.723,VALID,0,VALID,23.6026,VALID,7,VALID,0,
2010-11-19, 00:26:04,VALID,1003.57,VALID,0,INVALID,163.739,VALID,0,VALID,23.585,VALID,7,VALID,0,
2010-11-19, 00:27:04,VALID,1003.53,VALID,0,INVALID,163.723,VALID,0,VALID,23.585,VALID,7,VALID,0,
2010-11-19, 00:28:04,VALID,1003.48,VALID,0,INVALID,163.746,VALID,0,VALID,23.585,VALID,7,VALID,0,
2010-11-19, 00:29:04,VALID,1003.47,VALID,0,INVALID,163.723,VALID,0,VALID,23.5637,VALID,7,VALID,0,
2010-11-19, 00:30:04,VALID,1003.49,VALID,0,INVALID,163.739,VALID,0,VALID,23.585,VALID,7,VALID,0,
2010-11-19, 00:31:04,VALID,1003.51,VALID,0,INVALID,163.731,VALID,0,VALID,23.5637,VALID,7,VALID,0,
2010-11-19, 00:32:04,VALID,1003.46,VALID,0,INVALID,163.731,VALID,0,VALID,23.5832,VALID,7,VALID,0,
2010-11-19, 00:33:04,VALID,1003.45,VALID,0,INVALID,163.723,VALID,0,VALID,23.6044,VALID,7,VALID,0,
2010-11-19, 00:34:04,VALID,1003.46,VALID,0,INVALID,163.716,VALID,0,VALID,23.6434,VALID,7,VALID,0,
2010-11-19, 00:35:04,VALID,1003.44,VALID,0,INVALID,163.716,VALID,0,VALID,23.661,VALID,7,VALID,0,
2010-11-19, 00:36:04,VALID,1003.42,VALID,0,INVALID,163.716,VALID,0,VALID,23.6805,VALID,7,VALID,0,
2010-11-19, 00:37:04,VALID,1003.37,VALID,0,INVALID,163.716,VALID,0,VALID,23.6841,VALID,7,VALID,0,
2010-11-19, 00:38:04,VALID,1003.33,VALID,0,INVALID,163.708,VALID,0,VALID,23.6823,VALID,7,VALID,0,
2010-11-19, 00:39:04,VALID,1003.28,VALID,0,INVALID,163.716,VALID,0,VALID,23.6841,VALID,7,VALID,0,
2010-11-19, 00:40:04,VALID,1003.27,VALID,0,INVALID,163.708,VALID,0.100563,VALID,23.661,VALID,7,VALID,0.765625,
2010-11-19, 00:41:04,VALID,1003.21,VALID,0,INVALID,163.723,VALID,0,VALID,23.6221,VALID,7,VALID,0.567578,
2010-11-19, 00:42:04,VALID,1003.18,VALID,0,INVALID,163.716,VALID,0,VALID,23.6416,VALID,7,VALID,0.611328,
2010-11-19, 00:43:04,VALID,1003.14,VALID,0,INVALID,163.701,VALID,0,VALID,23.6434,VALID,7,VALID,0.609375,
2010-11-19, 00:44:04,VALID,1003.14,VALID,0,INVALID,163.723,VALID,0,VALID,23.6416,VALID,7,VALID,0.584375,
2010-11-19, 00:45:04,VALID,1003.15,VALID,0,INVALID,163.716,VALID,0,VALID,23.6628,VALID,7,VALID,0.433984,
2010-11-19, 00:46:04,VALID,1003.15,VALID,0,INVALID,163.716,VALID,0,VALID,23.6221,VALID,7,VALID,0.464453,
2010-11-19, 00:47:04,VALID,1003.13,VALID,0,INVALID,163.708,VALID,0,VALID,23.6628,VALID,7,VALID,0.406641,
2010-11-19, 00:48:04,VALID,1003.16,VALID,0,INVALID,163.731,VALID,0,VALID,23.6434,VALID,7,VALID,0.279297,
2010-11-19, 00:49:04,VALID,1003.18,VALID,0,INVALID,163.723,VALID,0,VALID,23.6628,VALID,7,VALID,0.28125,
2010-11-19, 00:50:04,VALID,1003.19,VALID,0,INVALID,163.723,VALID,0,VALID,23.6823,VALID,7,VALID,0.355469,
2010-11-19, 00:51:04,VALID,1003.24,VALID,0,INVALID,163.693,VALID,0.100563,VALID,23.7017,VALID,7,VALID,0.335938,
2010-11-19, 00:52:04,VALID,1003.24,VALID,0,INVALID,163.708,VALID,0,VALID,23.7017,VALID,7,VALID,0.170703,
2010-11-19, 00:53:04,VALID,1003.22,VALID,0,INVALID,163.739,VALID,0,VALID,23.7212,VALID,7,VALID,0.160547,
2010-11-19, 00:54:04,VALID,1003.23,VALID,0,INVALID,163.708,VALID,0,VALID,23.7,VALID,7,VALID,0.313281,
2010-11-19, 00:55:04,VALID,1003.2,VALID,0,INVALID,163.723,VALID,0,VALID,23.7425,VALID,7,VALID,0.0816406,
2010-11-19, 00:56:04,VALID,1003.23,VALID,0,INVALID,163.754,VALID,0,VALID,23.723,VALID,7,VALID,0.294141,
2010-11-19, 00:57:04,VALID,1003.21,VALID,0,INVALID,163.731,VALID,0,VALID,23.723,VALID,7,VALID,0.194922,
2010-11-19, 00:58:04,VALID,1003.17,VALID,0,INVALID,163.746,VALID,0,VALID,23.7212,VALID,7,VALID,0.236719,
2010-11-19, 00:59:04,VALID,1003.18,VALID,0,INVALID,163.716,VALID,0,VALID,23.7619,VALID,7,VALID,0.271484,
2010-11-19, 01:00:04,VALID,1003.15,VALID,0,INVALID,163.716,VALID,0,VALID,23.7619,VALID,7,VALID,0,
2010-11-19, 01:01:04,VALID,1003.16,VALID,0,INVALID,163.731,VALID,0,VALID,23.7796,VALID,7,VALID,0,
2010-11-19, 01:02:04,VALID,1003.1,VALID,0,INVALID,163.716,VALID,0,VALID,23.7796,VALID,7,VALID,0,
2010-11-19, 01:03:04,VALID,1003.12,VALID,0,INVALID,163.716,VALID,0,VALID,23.8203,VALID,7,VALID,0,
2010-11-19, 01:04:04,VALID,1003.12,VALID,0,INVALID,163.716,VALID,0,VALID,23.8203,VALID,7,VALID,0,
2010-11-19, 01:05:04,VALID,1003.11,VALID,0,INVALID,163.701,VALID,0,VALID,23.8203,VALID,7,VALID,0,
2010-11-19, 01:06:04,VALID,1003.11,VALID,0,INVALID,163.723,VALID,0,VALID,23.8398,VALID,7,VALID,0,
2010-11-19, 01:07:04,VALID,1003.1,VALID,0,INVALID,163.723,VALID,0,VALID,23.8787,VALID,7,VALID,0,
2010-11-19, 01:08:04,VALID,1003.1,VALID,0,INVALID,163.708,VALID,0,VALID,23.8769,VALID,7,VALID,0,
2010-11-19, 01:09:04,VALID,1003.06,VALID,0,INVALID,163.708,VALID,0,VALID,23.8982,VALID,7,VALID,0,
2010-11-19, 01:10:04,VALID,1003.06,VALID,0,INVALID,163.693,VALID,0,VALID,23.8982,VALID,7,VALID,0,
2010-11-19, 01:11:04,VALID,1003.04,VALID,0,INVALID,163.693,VALID,0,VALID,23.8982,VALID,7,VALID,0,
2010-11-19, 01:12:04,VALID,1003.03,VALID,0,INVALID,163.693,VALID,0,VALID,23.8787,VALID,7,VALID,0,
2010-11-19, 01:13:04,VALID,1002.97,VALID,0,INVALID,163.723,VALID,0,VALID,23.9195,VALID,7,VALID,0.353906,
2010-11-19, 01:14:04,VALID,1002.95,VALID,0,INVALID,163.678,VALID,0,VALID,23.8982,VALID,7,VALID,0.03125,
2010-11-19, 01:15:04,VALID,1002.91,VALID,0,INVALID,163.723,VALID,0,VALID,23.8575,VALID,12,VALID,0.478516,
2010-11-19, 01:16:04,VALID,1002.87,VALID,0,INVALID,163.723,VALID,0,VALID,23.8787,VALID,16,VALID,0.753906,
2010-11-19, 01:17:04,VALID,1002.86,VALID,0,INVALID,163.693,VALID,0,VALID,23.8593,VALID,18,VALID,0.730078,
2010-11-19, 01:18:04,VALID,1002.81,VALID,0,INVALID,163.708,VALID,0,VALID,23.8593,VALID,18,VALID,0.690625,
2010-11-19, 01:19:04,VALID,1002.8,VALID,0,INVALID,163.685,VALID,0,VALID,23.8593,VALID,18,VALID,0.701563,
2010-11-19, 01:20:04,VALID,1002.76,VALID,0,INVALID,163.693,VALID,0,VALID,23.8398,VALID,18,VALID,0.633984,
2010-11-19, 01:21:04,VALID,1002.72,VALID,0,INVALID,163.723,VALID,0,VALID,23.8593,VALID,18,VALID,0.594922,
2010-11-19, 01:22:04,VALID,1002.71,VALID,0,INVALID,163.67,VALID,0,VALID,23.8787,VALID,18,VALID,0.577344,
2010-11-19, 01:23:04,VALID,1002.73,VALID,0,INVALID,163.708,VALID,0,VALID,23.8787,VALID,18,VALID,0.616797,
2010-11-19, 01:24:04,VALID,1002.68,VALID,0,INVALID,163.701,VALID,0,VALID,23.8593,VALID,18,VALID,0.527734,
2010-11-19, 01:25:04,VALID,1002.65,VALID,0,INVALID,163.693,VALID,0,VALID,23.8575,VALID,14,VALID,0.65,
2010-11-19, 01:26:04,VALID,1002.64,VALID,0,INVALID,163.693,VALID,0.100563,VALID,23.8185,VALID,9,VALID,0.580469,
2010-11-19, 01:27:04,VALID,1002.62,VALID,0,INVALID,163.723,VALID,0,VALID,23.8185,VALID,9,VALID,0.315234,
2010-11-19, 01:28:04,VALID,1002.6,VALID,0,INVALID,163.731,VALID,0,VALID,23.8185,VALID,9,VALID,0.644531,
2010-11-19, 01:29:04,VALID,1002.58,VALID,0,INVALID,163.731,VALID,0,VALID,23.838,VALID,8,VALID,0.484375,
2010-11-19, 01:30:04,VALID,1002.57,VALID,0,INVALID,163.723,VALID,0,VALID,23.838,VALID,6,VALID,0.469922,
2010-11-19, 01:31:04,VALID,1002.54,VALID,0,INVALID,163.701,VALID,0,VALID,23.838,VALID,6,VALID,0.241406,
2010-11-19, 01:32:04,VALID,1002.51,VALID,0,INVALID,163.685,VALID,0,VALID,23.8769,VALID,6,VALID,0.301953,
2010-11-19, 01:33:04,VALID,1002.49,VALID,0,INVALID,163.708,VALID,0,VALID,23.8769,VALID,6,VALID,0.372266,
2010-11-19, 01:34:04,VALID,1002.49,VALID,0,INVALID,163.693,VALID,0,VALID,23.8964,VALID,6,VALID,0.314063,
2010-11-19, 01:35:04,VALID,1002.47,VALID,0,INVALID,163.693,VALID,0,VALID,23.9548,VALID,6,VALID,0.460547,
2010-11-19, 01:36:04,VALID,1002.46,VALID,0,INVALID,163.678,VALID,0,VALID,23.9937,VALID,5,VALID,0.531641,
2010-11-19, 01:37:04,VALID,1002.47,VALID,0,INVALID,163.685,VALID,0,VALID,24.0132,VALID,337,VALID,0.29375,
2010-11-19, 01:38:04,VALID,1002.47,VALID,0,INVALID,163.708,VALID,0,VALID,24.0929,VALID,330,VALID,0.325781,
2010-11-19, 01:39:04,VALID,1002.45,VALID,0,INVALID,163.693,VALID,0.100563,VALID,24.1105,VALID,324,VALID,0.31875,
2010-11-19, 01:40:04,VALID,1002.46,VALID,0,INVALID,163.678,VALID,0,VALID,24.1884,VALID,323,VALID,0.258594,
2010-11-19, 01:41:04,VALID,1002.46,VALID,0,INVALID,163.678,VALID,0,VALID,24.2468,VALID,323,VALID,0.262891,
2010-11-19, 01:42:04,VALID,1002.44,VALID,0,INVALID,163.655,VALID,0,VALID,24.3052,VALID,323,VALID,0.338281,
2010-11-19, 01:43:04,VALID,1002.45,VALID,0,INVALID,163.67,VALID,0,VALID,24.4025,VALID,336,VALID,0.449219,
2010-11-19, 01:44:04,VALID,1002.43,VALID,0,INVALID,163.647,VALID,0,VALID,24.4609,VALID,345,VALID,0.334375,
2010-11-19, 01:45:04,VALID,1002.45,VALID,0,INVALID,163.693,VALID,0.100563,VALID,24.5174,VALID,324,VALID,0.352344,
2010-11-19, 01:46:04,VALID,1002.43,VALID,0,INVALID,163.639,VALID,0,VALID,24.6166,VALID,348,VALID,0.524219,
2010-11-19, 01:47:04,VALID,1002.45,VALID,0,INVALID,163.639,VALID,0,VALID,24.6556,VALID,348,VALID,0.242969,
2010-11-19, 01:48:04,VALID,1002.48,VALID,0,INVALID,163.632,VALID,0.100563,VALID,24.7353,VALID,335,VALID,0.166406,
2010-11-19, 01:49:04,VALID,1002.46,VALID,0,INVALID,163.647,VALID,0,VALID,24.7529,VALID,336,VALID,0.341797,
2010-11-19, 01:50:04,VALID,1002.46,VALID,0,INVALID,163.632,VALID,0,VALID,24.7705,VALID,358,VALID,0.905078,
2010-11-19, 01:51:04,VALID,1002.44,VALID,0,INVALID,163.639,VALID,0,VALID,24.8308,VALID,349,VALID,1.1168,
2010-11-19, 01:52:04,VALID,1002.43,VALID,0,INVALID,163.632,VALID,0,VALID,24.8892,VALID,333,VALID,0.610937,
2010-11-19, 01:53:04,VALID,1002.4,VALID,0,INVALID,163.624,VALID,0,VALID,24.9476,VALID,308,VALID,0.542578,
2010-11-19, 01:54:04,VALID,1002.38,VALID,0,INVALID,163.609,VALID,0,VALID,24.9457,VALID,352,VALID,0.820703,
2010-11-19, 01:55:04,VALID,1002.37,VALID,0,INVALID,163.632,VALID,0,VALID,24.9866,VALID,330,VALID,0.392969,
2010-11-19, 01:56:04,VALID,1002.36,VALID,0,INVALID,163.647,VALID,0,VALID,25.006,VALID,7,VALID,0.664844,
2010-11-19, 01:57:04,VALID,1002.32,VALID,0,INVALID,163.632,VALID,0,VALID,24.9438,VALID,344,VALID,0.878125,
2010-11-19, 01:58:04,VALID,1002.29,VALID,0,INVALID,163.617,VALID,0,VALID,24.9671,VALID,330,VALID,0.560156,
2010-11-19, 01:59:04,VALID,1002.28,VALID,0,INVALID,163.632,VALID,0,VALID,24.9671,VALID,344,VALID,0.71875,
2010-11-19, 02:00:04,VALID,1002.31,VALID,0,INVALID,163.639,VALID,0,VALID,25.0079,VALID,351,VALID,0.929688,
2010-11-19, 02:01:04,VALID,1002.26,VALID,0,INVALID,163.647,VALID,0,VALID,25.0663,VALID,343,VALID,1.07031,
2010-11-19, 02:02:04,VALID,1002.2,VALID,0,INVALID,163.617,VALID,0,VALID,25.0839,VALID,348,VALID,1.21719,
2010-11-19, 02:03:04,VALID,1002.21,VALID,0,INVALID,163.617,VALID,0,VALID,25.1618,VALID,5,VALID,0.99375,
2010-11-19, 02:04:04,VALID,1002.19,VALID,0,INVALID,163.617,VALID,0,VALID,25.2007,VALID,355,VALID,0.589063,
2010-11-19, 02:05:04,VALID,1002.15,VALID,0,INVALID,163.609,VALID,0,VALID,25.2397,VALID,356,VALID,1.02773,
2010-11-19, 02:06:04,VALID,1002.17,VALID,0,INVALID,163.609,VALID,0,VALID,25.2786,VALID,354,VALID,1.14766,
2010-11-19, 02:07:04,VALID,1002.17,VALID,0,INVALID,163.601,VALID,0,VALID,25.2981,VALID,346,VALID,0.860547,
2010-11-19, 02:08:04,VALID,1002.16,VALID,0,INVALID,163.617,VALID,0,VALID,25.3779,VALID,356,VALID,1.05859,
2010-11-19, 02:09:04,VALID,1002.14,VALID,0,INVALID,163.586,VALID,0,VALID,25.376,VALID,351,VALID,1.1207,
2010-11-19, 02:10:04,VALID,1002.11,VALID,0,INVALID,161.923,VALID,0,VALID,25.4169,VALID,345,VALID,0.632422,
2010-11-19, 02:11:04,VALID,1002.11,VALID,0,INVALID,161.496,VALID,0,VALID,25.3974,VALID,1,VALID,0.717969,
2010-11-19, 02:12:04,VALID,1002.11,VALID,0,INVALID,163.212,VALID,0,VALID,25.3351,VALID,345,VALID,0.730469,
2010-11-19, 02:13:04,VALID,1002.14,VALID,0,INVALID,163.586,VALID,0,VALID,25.337,VALID,357,VALID,0.76875,
2010-11-19, 02:14:04,VALID,1002.13,VALID,0,INVALID,163.609,VALID,0,VALID,25.3176,VALID,356,VALID,0.696094,
2010-11-19, 02:15:04,VALID,1002.1,VALID,0,INVALID,163.617,VALID,0,VALID,25.2981,VALID,15,VALID,0.909375,
2010-11-19, 02:16:04,VALID,1002.07,VALID,0,INVALID,163.609,VALID,0.100563,VALID,25.2981,VALID,359,VALID,0.934766,
2010-11-19, 02:17:04,VALID,1002.06,VALID,0,INVALID,163.609,VALID,0,VALID,25.2786,VALID,7,VALID,0.860937,
2010-11-19, 02:18:04,VALID,1002.01,VALID,0,INVALID,163.617,VALID,0,VALID,25.2592,VALID,347,VALID,0.624219,
2010-11-19, 02:19:04,VALID,1002.01,VALID,0,INVALID,163.624,VALID,0,VALID,25.2592,VALID,346,VALID,0.876562,
2010-11-19, 02:20:04,VALID,1002,VALID,0,INVALID,163.594,VALID,0,VALID,25.2202,VALID,348,VALID,0.657031,
2010-11-19, 02:21:04,VALID,1002.01,VALID,0,INVALID,163.594,VALID,0,VALID,25.2592,VALID,359,VALID,0.735156,
2010-11-19, 02:22:04,VALID,1002.01,VALID,0,INVALID,163.571,VALID,0,VALID,25.2786,VALID,356,VALID,1.29688,
2010-11-19, 02:23:04,VALID,1002.06,VALID,0,INVALID,163.601,VALID,0,VALID,25.339,VALID,344,VALID,0.725,
2010-11-19, 02:24:04,VALID,1002.04,VALID,0,INVALID,163.563,VALID,0,VALID,25.376,VALID,2,VALID,1.82344,
2010-11-19, 02:25:04,VALID,1002.1,VALID,0,INVALID,154.988,VALID,0,VALID,25.4539,VALID,353,VALID,1.08438,
2010-11-19, 02:26:04,VALID,1002.13,VALID,0,INVALID,144.834,VALID,0,VALID,25.4928,VALID,347,VALID,1.60078,
2010-11-19, 02:27:04,VALID,1002.09,VALID,0,INVALID,137.701,VALID,0,VALID,25.5123,VALID,8,VALID,0.539063,
2010-11-19, 02:28:04,VALID,1002.08,VALID,0,INVALID,134.551,VALID,0,VALID,25.5318,VALID,333,VALID,0.623828,
2010-11-19, 02:29:04,VALID,1002.08,VALID,0,INVALID,131.461,VALID,0,VALID,25.5123,VALID,350,VALID,0.987109,
2010-11-19, 02:30:04,VALID,1002.05,VALID,0,INVALID,131.56,VALID,0,VALID,25.5318,VALID,336,VALID,0.749609,
2010-11-19, 02:31:04,VALID,1002.04,VALID,0,INVALID,132.498,VALID,0,VALID,25.5318,VALID,356,VALID,1.40703,
2010-11-19, 02:32:04,VALID,1002.03,VALID,0,INVALID,129.454,VALID,0,VALID,25.5318,VALID,1,VALID,1.67969,
2010-11-19, 02:33:04,VALID,1002.02,VALID,0,INVALID,126.365,VALID,0,VALID,25.5707,VALID,356,VALID,1.5707,
2010-11-19, 02:34:05,VALID,1002.01,VALID,0,INVALID,124.198,VALID,0,VALID,25.5688,VALID,351,VALID,1.09453,
2010-11-19, 02:35:05,VALID,1002.03,VALID,0,INVALID,124.557,VALID,0,VALID,25.5902,VALID,355,VALID,1.02656,
2010-11-19, 02:36:05,VALID,1002.04,VALID,0,INVALID,125.327,VALID,0,VALID,25.5902,VALID,357,VALID,0.715625,
2010-11-19, 02:37:05,VALID,1002,VALID,0,INVALID,127.891,VALID,0,VALID,25.5513,VALID,353,VALID,0.719531,
2010-11-19, 02:38:05,VALID,1002,VALID,0,INVALID,131.179,VALID,0,VALID,25.5142,VALID,359,VALID,0.905469,
2010-11-19, 02:39:05,VALID,1001.97,VALID,0,INVALID,135.977,VALID,0,VALID,25.5142,VALID,19,VALID,0.803906,
2010-11-19, 02:40:05,VALID,1001.99,VALID,0,INVALID,136.336,VALID,0,VALID,25.4539,VALID,16,VALID,0.691016,
2010-11-19, 02:41:05,VALID,1001.94,VALID,0,INVALID,136.549,VALID,0,VALID,25.4363,VALID,3,VALID,0.314844,
2010-11-19, 02:42:05,VALID,1001.97,VALID,0,INVALID,143.537,VALID,0,VALID,25.3974,VALID,3,VALID,0.445703,
2010-11-19, 02:43:05,VALID,1001.9,VALID,0,INVALID,153.882,VALID,0,VALID,25.337,VALID,360,VALID,0.303906,
2010-11-19, 02:44:05,VALID,1001.87,VALID,0,INVALID,162.526,VALID,0,VALID,25.3176,VALID,359,VALID,0.660937,
2010-11-19, 02:45:05,VALID,1001.87,VALID,0,INVALID,163.54,VALID,0,VALID,25.339,VALID,359,VALID,0.380859,
2010-11-19, 02:46:05,VALID,1001.84,VALID,0,INVALID,163.556,VALID,0,VALID,25.3,VALID,359,VALID,0.324609,
2010-11-19, 02:47:05,VALID,1001.83,VALID,0,INVALID,163.563,VALID,0,VALID,25.2786,VALID,347,VALID,1.05156,
2010-11-19, 02:48:05,VALID,1001.79,VALID,0,INVALID,160.405,VALID,0,VALID,25.3176,VALID,351,VALID,0.505469,
2010-11-19, 02:49:05,VALID,1001.8,VALID,0,INVALID,159.238,VALID,0,VALID,25.2962,VALID,345,VALID,0.977344,
2010-11-19, 02:50:05,VALID,1001.79,VALID,0,INVALID,157.864,VALID,0,VALID,25.339,VALID,341,VALID,0.567187,
2010-11-19, 02:51:05,VALID,1001.75,VALID,0,INVALID,158.467,VALID,0,VALID,25.2981,VALID,342,VALID,0.989844,
2010-11-19, 02:52:05,VALID,1001.77,VALID,0,INVALID,159.627,VALID,0,VALID,25.3,VALID,348,VALID,0.807422,
2010-11-19, 02:53:05,VALID,1001.76,VALID,0,INVALID,158.192,VALID,0,VALID,25.3,VALID,357,VALID,0.744141,
2010-11-19, 02:54:05,VALID,1001.79,VALID,0,INVALID,154.714,VALID,0,VALID,25.3195,VALID,348,VALID,1.22461,
2010-11-19, 02:55:05,VALID,1001.77,VALID,0,INVALID,151.098,VALID,0,VALID,25.3176,VALID,10,VALID,0.869922,
2010-11-19, 02:56:05,VALID,1001.78,VALID,0,INVALID,146.986,VALID,0,VALID,25.2981,VALID,26,VALID,0.920703,
2010-11-19, 02:57:05,VALID,1001.76,VALID,0,INVALID,145.01,VALID,0,VALID,25.3195,VALID,24,VALID,0.414063,
2010-11-19, 02:58:05,VALID,1001.78,VALID,0,INVALID,147.085,VALID,0,VALID,25.2786,VALID,352,VALID,0.490234,
2010-11-19, 02:59:05,VALID,1001.77,VALID,0,INVALID,149.908,VALID,0,VALID,25.2397,VALID,354,VALID,0.307031,
2010-11-19, 03:00:05,VALID,1001.79,VALID,0,INVALID,151.952,VALID,0,VALID,25.2397,VALID,354,VALID,0.317969,
2010-11-19, 03:01:05,VALID,1001.81,VALID,0,INVALID,151.319,VALID,0,VALID,25.2027,VALID,3,VALID,0.288281,
2010-11-19, 03:02:05,VALID,1001.81,VALID,0,INVALID,151.777,VALID,0,VALID,25.2007,VALID,10,VALID,0.475391,
2010-11-19, 03:03:05,VALID,1001.85,VALID,0,INVALID,151.166,VALID,0,VALID,25.2416,VALID,26,VALID,0.439453,
2010-11-19, 03:04:05,VALID,1001.85,VALID,0,INVALID,147.474,VALID,0,VALID,25.2007,VALID,25,VALID,0.0289063,
2010-11-19, 03:05:05,VALID,1001.86,VALID,0,INVALID,146.078,VALID,0,VALID,25.2202,VALID,25,VALID,0.0597656,
2010-11-19, 03:06:05,VALID,1001.84,VALID,0,INVALID,147.497,VALID,0,VALID,25.2221,VALID,25,VALID,0.195313,
2010-11-19, 03:07:05,VALID,1001.85,VALID,0,INVALID,150.464,VALID,0,VALID,25.2007,VALID,25,VALID,0.103906,
2010-11-19, 03:08:05,VALID,1001.84,VALID,0,INVALID,151.578,VALID,0,VALID,25.1423,VALID,26,VALID,0.353906,
2010-11-19, 03:09:05,VALID,1001.84,VALID,0,INVALID,156.003,VALID,0,VALID,25.1637,VALID,26,VALID,0.311328,
2010-11-19, 03:10:05,VALID,1001.84,VALID,0,INVALID,163.51,VALID,0,VALID,25.1034,VALID,27,VALID,0.753125,
2010-11-19, 03:11:05,VALID,1001.87,VALID,0,INVALID,163.594,VALID,0,VALID,25.1053,VALID,41,VALID,0.432031,
2010-11-19, 03:12:05,VALID,1001.88,VALID,0,INVALID,163.617,VALID,0,VALID,25.0858,VALID,41,VALID,0.223828,
2010-11-19, 03:13:05,VALID,1001.9,VALID,0,INVALID,163.601,VALID,0,VALID,25.0255,VALID,39,VALID,0.652734,
2010-11-19, 03:14:05,VALID,1001.92,VALID,0,INVALID,163.609,VALID,0,VALID,25.0274,VALID,41,VALID,0.437109,
2010-11-19, 03:15:05,VALID,1001.92,VALID,0,INVALID,163.624,VALID,0,VALID,24.9866,VALID,62,VALID,0.283203,
2010-11-19, 03:16:05,VALID,1001.95,VALID,0,INVALID,163.601,VALID,0,VALID,24.9476,VALID,62,VALID,0.216406,
2010-11-19, 03:17:05,VALID,1001.94,VALID,0,INVALID,163.617,VALID,0,VALID,24.9476,VALID,62,VALID,0.476172,
2010-11-19, 03:18:05,VALID,1001.95,VALID,0,INVALID,163.609,VALID,0,VALID,24.9282,VALID,62,VALID,0.273047,
2010-11-19, 03:19:05,VALID,1001.94,VALID,0,INVALID,163.624,VALID,0,VALID,24.9282,VALID,62,VALID,0.291406,
2010-11-19, 03:20:05,VALID,1001.96,VALID,0,INVALID,163.639,VALID,0,VALID,24.969,VALID,356,VALID,0.582422,
2010-11-19, 03:21:05,VALID,1001.91,VALID,0,INVALID,163.632,VALID,0,VALID,24.9885,VALID,356,VALID,0.232812,
2010-11-19, 03:22:05,VALID,1001.93,VALID,0,INVALID,163.624,VALID,0,VALID,25.0079,VALID,356,VALID,0.158594,
2010-11-19, 03:23:05,VALID,1001.91,VALID,0,INVALID,163.609,VALID,0,VALID,25.006,VALID,356,VALID,0.347656,
2010-11-19, 03:24:05,VALID,1001.93,VALID,0,INVALID,163.624,VALID,0,VALID,25.0663,VALID,354,VALID,0.436328,
2010-11-19, 03:25:05,VALID,1001.9,VALID,0,INVALID,163.609,VALID,0,VALID,25.0839,VALID,357,VALID,0.600781,
2010-11-19, 03:26:05,VALID,1001.92,VALID,0,INVALID,163.639,VALID,0,VALID,25.1053,VALID,358,VALID,0.438672,
2010-11-19, 03:27:05,VALID,1001.92,VALID,0,INVALID,163.617,VALID,0,VALID,25.1053,VALID,358,VALID,0.255469,
2010-11-19, 03:28:05,VALID,1001.91,VALID,0,INVALID,163.594,VALID,0,VALID,25.1053,VALID,358,VALID,0.0269531,
2010-11-19, 03:29:05,VALID,1001.91,VALID,0,INVALID,163.632,VALID,0,VALID,25.1248,VALID,12,VALID,0.63125,
2010-11-19, 03:30:05,VALID,1001.93,VALID,0,INVALID,163.601,VALID,0,VALID,25.1229,VALID,12,VALID,0.216016,
2010-11-19, 03:31:05,VALID,1001.96,VALID,0,INVALID,163.609,VALID,0,VALID,25.1229,VALID,12,VALID,0,
2010-11-19, 03:32:05,VALID,1001.95,VALID,0,INVALID,163.617,VALID,0,VALID,25.1034,VALID,12,VALID,0.283984,
2010-11-19, 03:33:05,VALID,1001.99,VALID,0,INVALID,163.617,VALID,0,VALID,25.0839,VALID,11,VALID,0.191016,
2010-11-19, 03:34:05,VALID,1001.99,VALID,0,INVALID,163.609,VALID,0,VALID,25.0839,VALID,11,VALID,0.263672,
2010-11-19, 03:35:05,VALID,1002.03,VALID,0,INVALID,163.609,VALID,0,VALID,25.0663,VALID,11,VALID,0.298047,
2010-11-19, 03:36:05,VALID,1002.06,VALID,0,INVALID,163.647,VALID,0,VALID,25.045,VALID,11,VALID,0.290625,
2010-11-19, 03:37:05,VALID,1001.99,VALID,0,INVALID,163.617,VALID,0,VALID,25.0469,VALID,11,VALID,0.367188,
2010-11-19, 03:38:05,VALID,1002.03,VALID,0,INVALID,163.624,VALID,0,VALID,25.0469,VALID,17,VALID,0.189063,
2010-11-19, 03:39:05,VALID,1002.02,VALID,0,INVALID,163.632,VALID,0,VALID,25.006,VALID,28,VALID,0.479688,
2010-11-19, 03:40:05,VALID,1002.02,VALID,0,INVALID,163.624,VALID,0,VALID,25.0469,VALID,38,VALID,0.226172,
2010-11-19, 03:41:05,VALID,1002.02,VALID,0,INVALID,163.624,VALID,0,VALID,25.0255,VALID,38,VALID,0.190625,
2010-11-19, 03:42:05,VALID,1002.04,VALID,0,INVALID,163.632,VALID,0,VALID,25.0274,VALID,25,VALID,0.7875,
2010-11-19, 03:43:05,VALID,1002.05,VALID,0,INVALID,163.624,VALID,0,VALID,25.0255,VALID,6,VALID,0.998047,
2010-11-19, 03:44:05,VALID,1002.06,VALID,0,INVALID,163.617,VALID,0,VALID,25.045,VALID,9,VALID,0.475391,
2010-11-19, 03:45:05,VALID,1002.07,VALID,0,INVALID,163.617,VALID,0,VALID,25.0644,VALID,19,VALID,0.947266,